#datetime,building,power
2023-02-15T00:00:00,mfh,46.38
2023-02-15T00:01:00,mfh,46.25
2023-02-15T00:02:00,mfh,46.22
2023-02-15T00:03:00,mfh,45.21
2023-02-15T00:04:00,mfh,45.14
2023-02-15T00:05:00,mfh,44.51
2023-02-15T00:06:00,mfh,44.51
2023-02-15T00:07:00,mfh,44.50
2023-02-15T00:08:00,mfh,45.04
2023-02-15T00:09:00,mfh,45.62
2023-02-15T00:10:00,mfh,45.47
2023-02-15T00:11:00,mfh,45.24
2023-02-15T00:12:00,mfh,45.32
2023-02-15T00:13:00,mfh,45.64
2023-02-15T00:14:00,mfh,44.77
2023-02-15T00:15:00,mfh,44.64
2023-02-15T00:16:00,mfh,44.64
2023-02-15T00:17:00,mfh,45.09
2023-02-15T00:18:00,mfh,45.34
2023-02-15T00:19:00,mfh,45.11
2023-02-15T00:20:00,mfh,45.11
2023-02-15T00:21:00,mfh,45.14
2023-02-15T00:22:00,mfh,45.17
2023-02-15T00:23:00,mfh,46.37
2023-02-15T00:24:00,mfh,51.85
2023-02-15T00:25:00,mfh,64.62
2023-02-15T00:26:00,mfh,66.53
2023-02-15T00:27:00,mfh,72.84
2023-02-15T00:28:00,mfh,73.30
2023-02-15T00:29:00,mfh,73.18
2023-02-15T00:30:00,mfh,72.65
2023-02-15T00:31:00,mfh,71.62
2023-02-15T00:32:00,mfh,71.66
2023-02-15T00:33:00,mfh,70.79
2023-02-15T00:34:00,mfh,71.56
2023-02-15T00:35:00,mfh,70.89
2023-02-15T00:36:00,mfh,70.46
2023-02-15T00:37:00,mfh,70.53
2023-02-15T00:38:00,mfh,70.19
2023-02-15T00:39:00,mfh,69.98
2023-02-15T00:40:00,mfh,69.64
2023-02-15T00:41:00,mfh,67.36
2023-02-15T00:42:00,mfh,67.26
2023-02-15T00:43:00,mfh,62.42
2023-02-15T00:44:00,mfh,56.33
2023-02-15T00:45:00,mfh,55.99
2023-02-15T00:46:00,mfh,57.13
2023-02-15T00:47:00,mfh,49.63
2023-02-15T00:48:00,mfh,44.14
2023-02-15T00:49:00,mfh,43.51
2023-02-15T00:50:00,mfh,43.58
2023-02-15T00:51:00,mfh,43.69
2023-02-15T00:52:00,mfh,44.36
2023-02-15T00:53:00,mfh,44.27
2023-02-15T00:54:00,mfh,44.35
2023-02-15T00:55:00,mfh,44.69
2023-02-15T00:56:00,mfh,45.10
2023-02-15T00:57:00,mfh,44.30
2023-02-15T00:58:00,mfh,44.83
2023-02-15T00:59:00,mfh,44.37
2023-02-15T01:00:00,mfh,44.39
2023-02-15T01:01:00,mfh,46.53
2023-02-15T01:02:00,mfh,46.60
2023-02-15T01:03:00,mfh,46.86
2023-02-15T01:04:00,mfh,47.00
2023-02-15T01:05:00,mfh,47.03
2023-02-15T01:06:00,mfh,46.31
2023-02-15T01:07:00,mfh,44.69
2023-02-15T01:08:00,mfh,44.64
2023-02-15T01:09:00,mfh,45.09
2023-02-15T01:10:00,mfh,45.02
2023-02-15T01:11:00,mfh,44.94
2023-02-15T01:12:00,mfh,44.93
2023-02-15T01:13:00,mfh,45.77
2023-02-15T01:14:00,mfh,45.47
2023-02-15T01:15:00,mfh,44.72
2023-02-15T01:16:00,mfh,44.46
2023-02-15T01:17:00,mfh,44.38
2023-02-15T01:18:00,mfh,45.01
2023-02-15T01:19:00,mfh,45.00
2023-02-15T01:20:00,mfh,45.73
2023-02-15T01:21:00,mfh,45.32
2023-02-15T01:22:00,mfh,45.37
2023-02-15T01:23:00,mfh,44.63
2023-02-15T01:24:00,mfh,44.72
2023-02-15T01:25:00,mfh,44.48
2023-02-15T01:26:00,mfh,44.25
2023-02-15T01:27:00,mfh,44.88
2023-02-15T01:28:00,mfh,44.94
2023-02-15T01:29:00,mfh,44.95
2023-02-15T01:30:00,mfh,44.85
2023-02-15T01:31:00,mfh,45.32
2023-02-15T01:32:00,mfh,44.38
2023-02-15T01:33:00,mfh,44.38
2023-02-15T01:34:00,mfh,44.32
2023-02-15T01:35:00,mfh,44.86
2023-02-15T01:36:00,mfh,45.25
2023-02-15T01:37:00,mfh,45.08
2023-02-15T01:38:00,mfh,45.08
2023-02-15T01:39:00,mfh,45.06
2023-02-15T01:40:00,mfh,45.30
2023-02-15T01:41:00,mfh,44.51
2023-02-15T01:42:00,mfh,45.25
2023-02-15T01:43:00,mfh,45.08
2023-02-15T01:44:00,mfh,45.82
2023-02-15T01:45:00,mfh,45.84
2023-02-15T01:46:00,mfh,46.15
2023-02-15T01:47:00,mfh,47.20
2023-02-15T01:48:00,mfh,46.89
2023-02-15T01:49:00,mfh,47.02
2023-02-15T01:50:00,mfh,46.31
2023-02-15T01:51:00,mfh,46.20
2023-02-15T01:52:00,mfh,47.16
2023-02-15T01:53:00,mfh,47.22
2023-02-15T01:54:00,mfh,47.15
2023-02-15T01:55:00,mfh,47.34
2023-02-15T01:56:00,mfh,47.08
2023-02-15T01:57:00,mfh,47.08
2023-02-15T01:58:00,mfh,47.25
2023-02-15T01:59:00,mfh,47.38
2023-02-15T02:00:00,mfh,46.52
2023-02-15T02:01:00,mfh,46.62
2023-02-15T02:02:00,mfh,47.14
2023-02-15T02:03:00,mfh,47.21
2023-02-15T02:04:00,mfh,47.06
2023-02-15T02:05:00,mfh,47.04
2023-02-15T02:06:00,mfh,45.03
2023-02-15T02:07:00,mfh,44.81
2023-02-15T02:08:00,mfh,45.00
2023-02-15T02:09:00,mfh,44.36
2023-02-15T02:10:00,mfh,44.70
2023-02-15T02:11:00,mfh,45.18
2023-02-15T02:12:00,mfh,45.15
2023-02-15T02:13:00,mfh,45.50
2023-02-15T02:14:00,mfh,45.24
2023-02-15T02:15:00,mfh,45.10
2023-02-15T02:16:00,mfh,44.37
2023-02-15T02:17:00,mfh,44.28
2023-02-15T02:18:00,mfh,44.28
2023-02-15T02:19:00,mfh,45.90
2023-02-15T02:20:00,mfh,44.94
2023-02-15T02:21:00,mfh,44.91
2023-02-15T02:22:00,mfh,44.98
2023-02-15T02:23:00,mfh,45.05
2023-02-15T02:24:00,mfh,45.18
2023-02-15T02:25:00,mfh,45.50
2023-02-15T02:26:00,mfh,44.84
2023-02-15T02:27:00,mfh,44.72
2023-02-15T02:28:00,mfh,45.35
2023-02-15T02:29:00,mfh,45.29
2023-02-15T02:30:00,mfh,45.34
2023-02-15T02:31:00,mfh,45.96
2023-02-15T02:32:00,mfh,45.25
2023-02-15T02:33:00,mfh,45.15
2023-02-15T02:34:00,mfh,44.44
2023-02-15T02:35:00,mfh,44.33
2023-02-15T02:36:00,mfh,44.33
2023-02-15T02:37:00,mfh,45.07
2023-02-15T02:38:00,mfh,45.75
2023-02-15T02:39:00,mfh,44.94
2023-02-15T02:40:00,mfh,44.91
2023-02-15T02:41:00,mfh,44.91
2023-02-15T02:42:00,mfh,45.00
2023-02-15T02:43:00,mfh,45.29
2023-02-15T02:44:00,mfh,44.51
2023-02-15T02:45:00,mfh,44.58
2023-02-15T02:46:00,mfh,44.46
2023-02-15T02:47:00,mfh,45.13
2023-02-15T02:48:00,mfh,45.22
2023-02-15T02:49:00,mfh,45.16
2023-02-15T02:50:00,mfh,45.25
2023-02-15T02:51:00,mfh,45.22
2023-02-15T02:52:00,mfh,44.72
2023-02-15T02:53:00,mfh,44.75
2023-02-15T02:54:00,mfh,44.84
2023-02-15T02:55:00,mfh,45.43
2023-02-15T02:56:00,mfh,45.52
2023-02-15T02:57:00,mfh,45.46
2023-02-15T02:58:00,mfh,45.97
2023-02-15T02:59:00,mfh,45.60
2023-02-15T03:00:00,mfh,45.90
2023-02-15T03:01:00,mfh,44.93
2023-02-15T03:02:00,mfh,44.88
2023-02-15T03:03:00,mfh,44.78
2023-02-15T03:04:00,mfh,45.03
2023-02-15T03:05:00,mfh,44.85
2023-02-15T03:06:00,mfh,45.02
2023-02-15T03:07:00,mfh,45.24
2023-02-15T03:08:00,mfh,47.07
2023-02-15T03:09:00,mfh,47.12
2023-02-15T03:10:00,mfh,46.61
2023-02-15T03:11:00,mfh,47.58
2023-02-15T03:12:00,mfh,46.60
2023-02-15T03:13:00,mfh,47.30
2023-02-15T03:14:00,mfh,47.32
2023-02-15T03:15:00,mfh,47.19
2023-02-15T03:16:00,mfh,47.49
2023-02-15T03:17:00,mfh,47.46
2023-02-15T03:18:00,mfh,47.43
2023-02-15T03:19:00,mfh,46.73
2023-02-15T03:20:00,mfh,46.62
2023-02-15T03:21:00,mfh,46.70
2023-02-15T03:22:00,mfh,47.20
2023-02-15T03:23:00,mfh,47.13
2023-02-15T03:24:00,mfh,47.06
2023-02-15T03:25:00,mfh,47.65
2023-02-15T03:26:00,mfh,48.29
2023-02-15T03:27:00,mfh,46.92
2023-02-15T03:28:00,mfh,45.14
2023-02-15T03:29:00,mfh,45.16
2023-02-15T03:30:00,mfh,45.19
2023-02-15T03:31:00,mfh,45.06
2023-02-15T03:32:00,mfh,45.41
2023-02-15T03:33:00,mfh,46.28
2023-02-15T03:34:00,mfh,45.49
2023-02-15T03:35:00,mfh,46.27
2023-02-15T03:36:00,mfh,46.26
2023-02-15T03:37:00,mfh,44.96
2023-02-15T03:38:00,mfh,44.96
2023-02-15T03:39:00,mfh,44.66
2023-02-15T03:40:00,mfh,45.25
2023-02-15T03:41:00,mfh,45.41
2023-02-15T03:42:00,mfh,45.31
2023-02-15T03:43:00,mfh,45.16
2023-02-15T03:44:00,mfh,45.08
2023-02-15T03:45:00,mfh,45.08
2023-02-15T03:46:00,mfh,44.38
2023-02-15T03:47:00,mfh,44.48
2023-02-15T03:48:00,mfh,44.62
2023-02-15T03:49:00,mfh,45.34
2023-02-15T03:50:00,mfh,45.92
2023-02-15T03:51:00,mfh,45.52
2023-02-15T03:52:00,mfh,45.30
2023-02-15T03:53:00,mfh,45.36
2023-02-15T03:54:00,mfh,45.31
2023-02-15T03:55:00,mfh,44.53
2023-02-15T03:56:00,mfh,44.47
2023-02-15T03:57:00,mfh,44.54
2023-02-15T03:58:00,mfh,45.14
2023-02-15T03:59:00,mfh,45.20
2023-02-15T04:00:00,mfh,45.11
2023-02-15T04:01:00,mfh,45.72
2023-02-15T04:02:00,mfh,45.11
2023-02-15T04:03:00,mfh,45.05
2023-02-15T04:04:00,mfh,44.42
2023-02-15T04:05:00,mfh,44.83
2023-02-15T04:06:00,mfh,44.59
2023-02-15T04:07:00,mfh,45.19
2023-02-15T04:08:00,mfh,45.15
2023-02-15T04:09:00,mfh,45.24
2023-02-15T04:10:00,mfh,46.07
2023-02-15T04:11:00,mfh,45.34
2023-02-15T04:12:00,mfh,45.16
2023-02-15T04:13:00,mfh,44.49
2023-02-15T04:14:00,mfh,44.51
2023-02-15T04:15:00,mfh,44.58
2023-02-15T04:16:00,mfh,45.31
2023-02-15T04:17:00,mfh,45.34
2023-02-15T04:18:00,mfh,45.57
2023-02-15T04:19:00,mfh,45.55
2023-02-15T04:20:00,mfh,45.55
2023-02-15T04:21:00,mfh,45.61
2023-02-15T04:22:00,mfh,44.91
2023-02-15T04:23:00,mfh,45.27
2023-02-15T04:24:00,mfh,45.12
2023-02-15T04:25:00,mfh,45.72
2023-02-15T04:26:00,mfh,45.63
2023-02-15T04:27:00,mfh,45.63
2023-02-15T04:28:00,mfh,47.71
2023-02-15T04:29:00,mfh,55.99
2023-02-15T04:30:00,mfh,57.00
2023-02-15T04:31:00,mfh,57.21
2023-02-15T04:32:00,mfh,56.48
2023-02-15T04:33:00,mfh,56.44
2023-02-15T04:34:00,mfh,57.07
2023-02-15T04:35:00,mfh,57.03
2023-02-15T04:36:00,mfh,56.84
2023-02-15T04:37:00,mfh,56.73
2023-02-15T04:38:00,mfh,57.48
2023-02-15T04:39:00,mfh,57.02
2023-02-15T04:40:00,mfh,57.13
2023-02-15T04:41:00,mfh,57.16
2023-02-15T04:42:00,mfh,57.05
2023-02-15T04:43:00,mfh,57.61
2023-02-15T04:44:00,mfh,57.65
2023-02-15T04:45:00,mfh,57.56
2023-02-15T04:46:00,mfh,57.13
2023-02-15T04:47:00,mfh,55.14
2023-02-15T04:48:00,mfh,55.18
2023-02-15T04:49:00,mfh,55.08
2023-02-15T04:50:00,mfh,54.65
2023-02-15T04:51:00,mfh,54.94
2023-02-15T04:52:00,mfh,55.29
2023-02-15T04:53:00,mfh,55.20
2023-02-15T04:54:00,mfh,55.15
2023-02-15T04:55:00,mfh,55.06
2023-02-15T04:56:00,mfh,56.33
2023-02-15T04:57:00,mfh,55.45
2023-02-15T04:58:00,mfh,55.18
2023-02-15T04:59:00,mfh,54.77
2023-02-15T05:00:00,mfh,55.05
2023-02-15T05:01:00,mfh,74.95
2023-02-15T05:02:00,mfh,77.35
2023-02-15T05:03:00,mfh,77.56
2023-02-15T05:04:00,mfh,77.80
2023-02-15T05:05:00,mfh,77.94
2023-02-15T05:06:00,mfh,77.42
2023-02-15T05:07:00,mfh,76.41
2023-02-15T05:08:00,mfh,75.90
2023-02-15T05:09:00,mfh,75.74
2023-02-15T05:10:00,mfh,75.80
2023-02-15T05:11:00,mfh,76.20
2023-02-15T05:12:00,mfh,76.20
2023-02-15T05:13:00,mfh,77.54
2023-02-15T05:14:00,mfh,77.48
2023-02-15T05:15:00,mfh,77.61
2023-02-15T05:16:00,mfh,76.99
2023-02-15T05:17:00,mfh,77.18
2023-02-15T05:18:00,mfh,76.72
2023-02-15T05:19:00,mfh,76.59
2023-02-15T05:20:00,mfh,76.95
2023-02-15T05:21:00,mfh,76.72
2023-02-15T05:22:00,mfh,77.22
2023-02-15T05:23:00,mfh,76.67
2023-02-15T05:24:00,mfh,76.63
2023-02-15T05:25:00,mfh,77.17
2023-02-15T05:26:00,mfh,77.21
2023-02-15T05:27:00,mfh,77.23
2023-02-15T05:28:00,mfh,77.70
2023-02-15T05:29:00,mfh,78.07
2023-02-15T05:30:00,mfh,78.14
2023-02-15T05:31:00,mfh,77.25
2023-02-15T05:32:00,mfh,76.94
2023-02-15T05:33:00,mfh,76.90
2023-02-15T05:34:00,mfh,76.28
2023-02-15T05:35:00,mfh,76.20
2023-02-15T05:36:00,mfh,76.28
2023-02-15T05:37:00,mfh,76.60
2023-02-15T05:38:00,mfh,76.66
2023-02-15T05:39:00,mfh,77.40
2023-02-15T05:40:00,mfh,76.73
2023-02-15T05:41:00,mfh,76.59
2023-02-15T05:42:00,mfh,77.13
2023-02-15T05:43:00,mfh,75.89
2023-02-15T05:44:00,mfh,75.81
2023-02-15T05:45:00,mfh,75.86
2023-02-15T05:46:00,mfh,76.51
2023-02-15T05:47:00,mfh,76.55
2023-02-15T05:48:00,mfh,75.88
2023-02-15T05:49:00,mfh,75.67
2023-02-15T05:50:00,mfh,75.88
2023-02-15T05:51:00,mfh,75.59
2023-02-15T05:52:00,mfh,75.15
2023-02-15T05:53:00,mfh,75.03
2023-02-15T05:54:00,mfh,74.98
2023-02-15T05:55:00,mfh,76.72
2023-02-15T05:56:00,mfh,76.66
2023-02-15T05:57:00,mfh,76.75
2023-02-15T05:58:00,mfh,76.73
2023-02-15T05:59:00,mfh,76.65
2023-02-15T06:00:00,mfh,76.74
2023-02-15T06:01:00,mfh,80.08
2023-02-15T06:02:00,mfh,80.19
2023-02-15T06:03:00,mfh,80.74
2023-02-15T06:04:00,mfh,80.80
2023-02-15T06:05:00,mfh,80.71
2023-02-15T06:06:00,mfh,80.63
2023-02-15T06:07:00,mfh,80.52
2023-02-15T06:08:00,mfh,80.42
2023-02-15T06:09:00,mfh,80.74
2023-02-15T06:10:00,mfh,80.78
2023-02-15T06:11:00,mfh,80.39
2023-02-15T06:12:00,mfh,80.43
2023-02-15T06:13:00,mfh,80.35
2023-02-15T06:14:00,mfh,79.89
2023-02-15T06:15:00,mfh,80.25
2023-02-15T06:16:00,mfh,80.38
2023-02-15T06:17:00,mfh,80.38
2023-02-15T06:18:00,mfh,81.27
2023-02-15T06:19:00,mfh,81.31
2023-02-15T06:20:00,mfh,81.33
2023-02-15T06:21:00,mfh,81.45
2023-02-15T06:22:00,mfh,81.47
2023-02-15T06:23:00,mfh,81.46
2023-02-15T06:24:00,mfh,81.34
2023-02-15T06:25:00,mfh,80.91
2023-02-15T06:26:00,mfh,81.13
2023-02-15T06:27:00,mfh,81.43
2023-02-15T06:28:00,mfh,80.92
2023-02-15T06:29:00,mfh,80.93
2023-02-15T06:30:00,mfh,80.95
2023-02-15T06:31:00,mfh,80.87
2023-02-15T06:32:00,mfh,80.91
2023-02-15T06:33:00,mfh,80.87
2023-02-15T06:34:00,mfh,81.22
2023-02-15T06:35:00,mfh,81.04
2023-02-15T06:36:00,mfh,80.59
2023-02-15T06:37:00,mfh,80.62
2023-02-15T06:38:00,mfh,81.33
2023-02-15T06:39:00,mfh,80.87
2023-02-15T06:40:00,mfh,80.84
2023-02-15T06:41:00,mfh,81.04
2023-02-15T06:42:00,mfh,81.00
2023-02-15T06:43:00,mfh,81.02
2023-02-15T06:44:00,mfh,82.33
2023-02-15T06:45:00,mfh,81.46
2023-02-15T06:46:00,mfh,81.41
2023-02-15T06:47:00,mfh,82.07
2023-02-15T06:48:00,mfh,80.63
2023-02-15T06:49:00,mfh,79.98
2023-02-15T06:50:00,mfh,80.26
2023-02-15T06:51:00,mfh,80.70
2023-02-15T06:52:00,mfh,80.10
2023-02-15T06:53:00,mfh,80.57
2023-02-15T06:54:00,mfh,80.43
2023-02-15T06:55:00,mfh,81.59
2023-02-15T06:56:00,mfh,81.82
2023-02-15T06:57:00,mfh,81.69
2023-02-15T06:58:00,mfh,81.58
2023-02-15T06:59:00,mfh,81.01
2023-02-15T07:00:00,mfh,80.10
2023-02-15T07:01:00,mfh,80.09
2023-02-15T07:02:00,mfh,86.75
2023-02-15T07:03:00,mfh,87.25
2023-02-15T07:04:00,mfh,90.22
2023-02-15T07:05:00,mfh,90.33
2023-02-15T07:06:00,mfh,90.18
2023-02-15T07:07:00,mfh,90.13
2023-02-15T07:08:00,mfh,89.92
2023-02-15T07:09:00,mfh,89.84
2023-02-15T07:10:00,mfh,89.88
2023-02-15T07:11:00,mfh,89.73
2023-02-15T07:12:00,mfh,89.58
2023-02-15T07:13:00,mfh,89.43
2023-02-15T07:14:00,mfh,89.42
2023-02-15T07:15:00,mfh,89.48
2023-02-15T07:16:00,mfh,89.52
2023-02-15T07:17:00,mfh,89.52
2023-02-15T07:18:00,mfh,89.44
2023-02-15T07:19:00,mfh,89.43
2023-02-15T07:20:00,mfh,89.41
2023-02-15T07:21:00,mfh,89.51
2023-02-15T07:22:00,mfh,89.25
2023-02-15T07:23:00,mfh,89.20
2023-02-15T07:24:00,mfh,88.97
2023-02-15T07:25:00,mfh,88.95
2023-02-15T07:26:00,mfh,89.05
2023-02-15T07:27:00,mfh,89.05
2023-02-15T07:28:00,mfh,89.05
2023-02-15T07:29:00,mfh,88.95
2023-02-15T07:30:00,mfh,88.94
2023-02-15T07:31:00,mfh,88.88
2023-02-15T07:32:00,mfh,88.92
2023-02-15T07:33:00,mfh,88.78
2023-02-15T07:34:00,mfh,88.83
2023-02-15T07:35:00,mfh,88.70
2023-02-15T07:36:00,mfh,88.91
2023-02-15T07:37:00,mfh,88.94
2023-02-15T07:38:00,mfh,89.01
2023-02-15T07:39:00,mfh,89.16
2023-02-15T07:40:00,mfh,88.85
2023-02-15T07:41:00,mfh,88.91
2023-02-15T07:42:00,mfh,88.90
2023-02-15T07:43:00,mfh,89.00
2023-02-15T07:44:00,mfh,87.16
2023-02-15T07:45:00,mfh,87.16
2023-02-15T07:46:00,mfh,87.09
2023-02-15T07:47:00,mfh,89.06
2023-02-15T07:48:00,mfh,89.14
2023-02-15T07:49:00,mfh,89.25
2023-02-15T07:50:00,mfh,89.26
2023-02-15T07:51:00,mfh,89.19
2023-02-15T07:52:00,mfh,89.32
2023-02-15T07:53:00,mfh,89.17
2023-02-15T07:54:00,mfh,89.10
2023-02-15T07:55:00,mfh,88.91
2023-02-15T07:56:00,mfh,89.06
2023-02-15T07:57:00,mfh,89.13
2023-02-15T07:58:00,mfh,89.18
2023-02-15T07:59:00,mfh,89.10
2023-02-15T08:00:00,mfh,89.17
2023-02-15T08:01:00,mfh,89.12
2023-02-15T08:02:00,mfh,89.15
2023-02-15T08:03:00,mfh,89.06
2023-02-15T08:04:00,mfh,87.67
2023-02-15T08:05:00,mfh,86.28
2023-02-15T08:06:00,mfh,78.53
2023-02-15T08:07:00,mfh,79.13
2023-02-15T08:08:00,mfh,79.47
2023-02-15T08:09:00,mfh,79.15
2023-02-15T08:10:00,mfh,79.10
2023-02-15T08:11:00,mfh,78.94
2023-02-15T08:12:00,mfh,79.09
2023-02-15T08:13:00,mfh,79.54
2023-02-15T08:14:00,mfh,79.68
2023-02-15T08:15:00,mfh,79.71
2023-02-15T08:16:00,mfh,79.82
2023-02-15T08:17:00,mfh,79.65
2023-02-15T08:18:00,mfh,79.81
2023-02-15T08:19:00,mfh,79.90
2023-02-15T08:20:00,mfh,79.51
2023-02-15T08:21:00,mfh,79.54
2023-02-15T08:22:00,mfh,79.85
2023-02-15T08:23:00,mfh,81.00
2023-02-15T08:24:00,mfh,80.16
2023-02-15T08:25:00,mfh,80.58
2023-02-15T08:26:00,mfh,80.80
2023-02-15T08:27:00,mfh,80.89
2023-02-15T08:28:00,mfh,80.88
2023-02-15T08:29:00,mfh,86.97
2023-02-15T08:30:00,mfh,89.22
2023-02-15T08:31:00,mfh,89.36
2023-02-15T08:32:00,mfh,89.30
2023-02-15T08:33:00,mfh,89.32
2023-02-15T08:34:00,mfh,89.14
2023-02-15T08:35:00,mfh,88.97
2023-02-15T08:36:00,mfh,88.91
2023-02-15T08:37:00,mfh,88.83
2023-02-15T08:38:00,mfh,88.72
2023-02-15T08:39:00,mfh,88.67
2023-02-15T08:40:00,mfh,88.53
2023-02-15T08:41:00,mfh,88.46
2023-02-15T08:42:00,mfh,88.31
2023-02-15T08:43:00,mfh,88.21
2023-02-15T08:44:00,mfh,88.20
2023-02-15T08:45:00,mfh,88.38
2023-02-15T08:46:00,mfh,88.20
2023-02-15T08:47:00,mfh,88.10
2023-02-15T08:48:00,mfh,88.28
2023-02-15T08:49:00,mfh,88.26
2023-02-15T08:50:00,mfh,86.13
2023-02-15T08:51:00,mfh,86.06
2023-02-15T08:52:00,mfh,80.32
2023-02-15T08:53:00,mfh,80.82
2023-02-15T08:54:00,mfh,80.02
2023-02-15T08:55:00,mfh,80.27
2023-02-15T08:56:00,mfh,80.29
2023-02-15T08:57:00,mfh,84.80
2023-02-15T08:58:00,mfh,85.04
2023-02-15T08:59:00,mfh,85.29
2023-02-15T09:00:00,mfh,85.52
2023-02-15T09:01:00,mfh,85.68
2023-02-15T09:02:00,mfh,85.69
2023-02-15T09:03:00,mfh,85.70
2023-02-15T09:04:00,mfh,85.71
2023-02-15T09:05:00,mfh,85.72
2023-02-15T09:06:00,mfh,85.70
2023-02-15T09:07:00,mfh,89.37
2023-02-15T09:08:00,mfh,89.58
2023-02-15T09:09:00,mfh,89.69
2023-02-15T09:10:00,mfh,89.55
2023-02-15T09:11:00,mfh,89.57
2023-02-15T09:12:00,mfh,89.48
2023-02-15T09:13:00,mfh,87.64
2023-02-15T09:14:00,mfh,87.59
2023-02-15T09:15:00,mfh,87.37
2023-02-15T09:16:00,mfh,83.96
2023-02-15T09:17:00,mfh,84.17
2023-02-15T09:18:00,mfh,84.04
2023-02-15T09:19:00,mfh,83.94
2023-02-15T09:20:00,mfh,83.90
2023-02-15T09:21:00,mfh,83.35
2023-02-15T09:22:00,mfh,82.74
2023-02-15T09:23:00,mfh,82.64
2023-02-15T09:24:00,mfh,79.74
2023-02-15T09:25:00,mfh,79.83
2023-02-15T09:26:00,mfh,80.17
2023-02-15T09:27:00,mfh,79.80
2023-02-15T09:28:00,mfh,82.02
2023-02-15T09:29:00,mfh,80.67
2023-02-15T09:30:00,mfh,81.63
2023-02-15T09:31:00,mfh,81.86
2023-02-15T09:32:00,mfh,81.08
2023-02-15T09:33:00,mfh,81.11
2023-02-15T09:34:00,mfh,81.02
2023-02-15T09:35:00,mfh,85.59
2023-02-15T09:36:00,mfh,86.97
2023-02-15T09:37:00,mfh,87.49
2023-02-15T09:38:00,mfh,87.37
2023-02-15T09:39:00,mfh,89.34
2023-02-15T09:40:00,mfh,89.17
2023-02-15T09:41:00,mfh,89.06
2023-02-15T09:42:00,mfh,89.13
2023-02-15T09:43:00,mfh,88.82
2023-02-15T09:44:00,mfh,88.78
2023-02-15T09:45:00,mfh,89.92
2023-02-15T09:46:00,mfh,90.10
2023-02-15T09:47:00,mfh,89.90
2023-02-15T09:48:00,mfh,90.04
2023-02-15T09:49:00,mfh,90.08
2023-02-15T09:50:00,mfh,90.12
2023-02-15T09:51:00,mfh,90.14
2023-02-15T09:52:00,mfh,89.98
2023-02-15T09:53:00,mfh,90.26
2023-02-15T09:54:00,mfh,90.10
2023-02-15T09:55:00,mfh,90.29
2023-02-15T09:56:00,mfh,90.35
2023-02-15T09:57:00,mfh,90.30
2023-02-15T09:58:00,mfh,90.22
2023-02-15T09:59:00,mfh,89.81
2023-02-15T10:00:00,mfh,89.88
2023-02-15T10:01:00,mfh,89.21
2023-02-15T10:02:00,mfh,89.23
2023-02-15T10:03:00,mfh,89.00
2023-02-15T10:04:00,mfh,89.33
2023-02-15T10:05:00,mfh,88.98
2023-02-15T10:06:00,mfh,89.10
2023-02-15T10:07:00,mfh,89.01
2023-02-15T10:08:00,mfh,88.94
2023-02-15T10:09:00,mfh,89.19
2023-02-15T10:10:00,mfh,88.86
2023-02-15T10:11:00,mfh,88.81
2023-02-15T10:12:00,mfh,88.91
2023-02-15T10:13:00,mfh,88.81
2023-02-15T10:14:00,mfh,88.74
2023-02-15T10:15:00,mfh,88.77
2023-02-15T10:16:00,mfh,88.71
2023-02-15T10:17:00,mfh,88.72
2023-02-15T10:18:00,mfh,88.69
2023-02-15T10:19:00,mfh,88.69
2023-02-15T10:20:00,mfh,88.64
2023-02-15T10:21:00,mfh,88.70
2023-02-15T10:22:00,mfh,88.88
2023-02-15T10:23:00,mfh,88.82
2023-02-15T10:24:00,mfh,88.83
2023-02-15T10:25:00,mfh,88.70
2023-02-15T10:26:00,mfh,88.80
2023-02-15T10:27:00,mfh,88.72
2023-02-15T10:28:00,mfh,88.96
2023-02-15T10:29:00,mfh,88.69
2023-02-15T10:30:00,mfh,88.64
2023-02-15T10:31:00,mfh,88.66
2023-02-15T10:32:00,mfh,88.79
2023-02-15T10:33:00,mfh,88.76
2023-02-15T10:34:00,mfh,88.78
2023-02-15T10:35:00,mfh,88.57
2023-02-15T10:36:00,mfh,88.52
2023-02-15T10:37:00,mfh,88.43
2023-02-15T10:38:00,mfh,88.65
2023-02-15T10:39:00,mfh,88.65
2023-02-15T10:40:00,mfh,88.64
2023-02-15T10:41:00,mfh,88.59
2023-02-15T10:42:00,mfh,88.78
2023-02-15T10:43:00,mfh,88.72
2023-02-15T10:44:00,mfh,88.64
2023-02-15T10:45:00,mfh,88.69
2023-02-15T10:46:00,mfh,88.69
2023-02-15T10:47:00,mfh,88.68
2023-02-15T10:48:00,mfh,88.60
2023-02-15T10:49:00,mfh,88.56
2023-02-15T10:50:00,mfh,88.68
2023-02-15T10:51:00,mfh,88.82
2023-02-15T10:52:00,mfh,89.23
2023-02-15T10:53:00,mfh,89.05
2023-02-15T10:54:00,mfh,89.05
2023-02-15T10:55:00,mfh,89.39
2023-02-15T10:56:00,mfh,89.39
2023-02-15T10:57:00,mfh,89.52
2023-02-15T10:58:00,mfh,89.40
2023-02-15T10:59:00,mfh,89.37
2023-02-15T11:00:00,mfh,89.19
2023-02-15T11:01:00,mfh,89.15
2023-02-15T11:02:00,mfh,89.26
2023-02-15T11:03:00,mfh,89.25
2023-02-15T11:04:00,mfh,89.27
2023-02-15T11:05:00,mfh,89.32
2023-02-15T11:06:00,mfh,89.35
2023-02-15T11:07:00,mfh,89.31
2023-02-15T11:08:00,mfh,89.28
2023-02-15T11:09:00,mfh,89.23
2023-02-15T11:10:00,mfh,89.13
2023-02-15T11:11:00,mfh,89.14
2023-02-15T11:12:00,mfh,89.34
2023-02-15T11:13:00,mfh,89.25
2023-02-15T11:14:00,mfh,89.30
2023-02-15T11:15:00,mfh,89.53
2023-02-15T11:16:00,mfh,89.52
2023-02-15T11:17:00,mfh,89.82
2023-02-15T11:18:00,mfh,89.75
2023-02-15T11:19:00,mfh,89.84
2023-02-15T11:20:00,mfh,89.89
2023-02-15T11:21:00,mfh,89.87
2023-02-15T11:22:00,mfh,89.85
2023-02-15T11:23:00,mfh,89.90
2023-02-15T11:24:00,mfh,89.70
2023-02-15T11:25:00,mfh,89.54
2023-02-15T11:26:00,mfh,89.67
2023-02-15T11:27:00,mfh,89.79
2023-02-15T11:28:00,mfh,89.87
2023-02-15T11:29:00,mfh,89.92
2023-02-15T11:30:00,mfh,90.01
2023-02-15T11:31:00,mfh,89.87
2023-02-15T11:32:00,mfh,89.93
2023-02-15T11:33:00,mfh,90.09
2023-02-15T11:34:00,mfh,90.06
2023-02-15T11:35:00,mfh,89.95
2023-02-15T11:36:00,mfh,89.91
2023-02-15T11:37:00,mfh,89.78
2023-02-15T11:38:00,mfh,89.88
2023-02-15T11:39:00,mfh,89.98
2023-02-15T11:40:00,mfh,90.10
2023-02-15T11:41:00,mfh,90.29
2023-02-15T11:42:00,mfh,90.04
2023-02-15T11:43:00,mfh,90.05
2023-02-15T11:44:00,mfh,89.98
2023-02-15T11:45:00,mfh,89.83
2023-02-15T11:46:00,mfh,89.96
2023-02-15T11:47:00,mfh,89.90
2023-02-15T11:48:00,mfh,90.02
2023-02-15T11:49:00,mfh,89.82
2023-02-15T11:50:00,mfh,89.78
2023-02-15T11:51:00,mfh,89.79
2023-02-15T11:52:00,mfh,90.00
2023-02-15T11:53:00,mfh,89.98
2023-02-15T11:54:00,mfh,90.09
2023-02-15T11:55:00,mfh,90.11
2023-02-15T11:56:00,mfh,90.29
2023-02-15T11:57:00,mfh,90.20
2023-02-15T11:58:00,mfh,90.18
2023-02-15T11:59:00,mfh,90.25
2023-02-15T12:00:00,mfh,90.29
2023-02-15T12:01:00,mfh,88.46
2023-02-15T12:02:00,mfh,88.35
2023-02-15T12:03:00,mfh,88.28
2023-02-15T12:04:00,mfh,88.09
2023-02-15T12:05:00,mfh,88.27
2023-02-15T12:06:00,mfh,88.30
2023-02-15T12:07:00,mfh,88.16
2023-02-15T12:08:00,mfh,88.45
2023-02-15T12:09:00,mfh,88.16
2023-02-15T12:10:00,mfh,88.23
2023-02-15T12:11:00,mfh,88.24
2023-02-15T12:12:00,mfh,88.18
2023-02-15T12:13:00,mfh,88.19
2023-02-15T12:14:00,mfh,88.27
2023-02-15T12:15:00,mfh,87.95
2023-02-15T12:16:00,mfh,88.07
2023-02-15T12:17:00,mfh,88.24
2023-02-15T12:18:00,mfh,88.25
2023-02-15T12:19:00,mfh,88.28
2023-02-15T12:20:00,mfh,88.24
2023-02-15T12:21:00,mfh,88.35
2023-02-15T12:22:00,mfh,88.33
2023-02-15T12:23:00,mfh,86.46
2023-02-15T12:24:00,mfh,82.93
2023-02-15T12:25:00,mfh,82.30
2023-02-15T12:26:00,mfh,82.26
2023-02-15T12:27:00,mfh,82.24
2023-02-15T12:28:00,mfh,81.86
2023-02-15T12:29:00,mfh,81.77
2023-02-15T12:30:00,mfh,82.12
2023-02-15T12:31:00,mfh,82.81
2023-02-15T12:32:00,mfh,82.71
2023-02-15T12:33:00,mfh,82.81
2023-02-15T12:34:00,mfh,82.96
2023-02-15T12:35:00,mfh,83.44
2023-02-15T12:36:00,mfh,83.08
2023-02-15T12:37:00,mfh,82.88
2023-02-15T12:38:00,mfh,82.85
2023-02-15T12:39:00,mfh,82.89
2023-02-15T12:40:00,mfh,82.43
2023-02-15T12:41:00,mfh,82.44
2023-02-15T12:42:00,mfh,83.60
2023-02-15T12:43:00,mfh,83.19
2023-02-15T12:44:00,mfh,83.17
2023-02-15T12:45:00,mfh,83.22
2023-02-15T12:46:00,mfh,83.29
2023-02-15T12:47:00,mfh,84.19
2023-02-15T12:48:00,mfh,84.32
2023-02-15T12:49:00,mfh,84.12
2023-02-15T12:50:00,mfh,89.74
2023-02-15T12:51:00,mfh,89.98
2023-02-15T12:52:00,mfh,90.07
2023-02-15T12:53:00,mfh,89.64
2023-02-15T12:54:00,mfh,89.84
2023-02-15T12:55:00,mfh,89.80
2023-02-15T12:56:00,mfh,89.48
2023-02-15T12:57:00,mfh,89.42
2023-02-15T12:58:00,mfh,89.42
2023-02-15T12:59:00,mfh,89.47
2023-02-15T13:00:00,mfh,89.48
2023-02-15T13:01:00,mfh,89.48
2023-02-15T13:02:00,mfh,89.55
2023-02-15T13:03:00,mfh,89.35
2023-02-15T13:04:00,mfh,89.22
2023-02-15T13:05:00,mfh,89.22
2023-02-15T13:06:00,mfh,87.26
2023-02-15T13:07:00,mfh,87.24
2023-02-15T13:08:00,mfh,85.55
2023-02-15T13:09:00,mfh,85.37
2023-02-15T13:10:00,mfh,89.07
2023-02-15T13:11:00,mfh,89.10
2023-02-15T13:12:00,mfh,89.23
2023-02-15T13:13:00,mfh,88.86
2023-02-15T13:14:00,mfh,88.81
2023-02-15T13:15:00,mfh,88.69
2023-02-15T13:16:00,mfh,88.69
2023-02-15T13:17:00,mfh,88.71
2023-02-15T13:18:00,mfh,88.81